When you browse on this site, cookies collect data to enhance your experience and personalize the content and advertising you see.
Visit our Privacy Policy to learn more. By continuing to use the site, you agree to this use of cookies and data.
  • In Romania
  • List of Countries
  • For 7 days
  • Water Temperature
  • Satellite Maps
  • Weather Map
  • Weather Widgets
  • user-avatar
    Login

    Hourly Weather Lyszkowice

    Today, 26 June, Wednesday

    Time Temperature Precipitation Wind Pressure Humidity
    00:00 +22°C° 0 mm 1 mps 745 mmHg 94%
    01:00 +22°C° 0 mm 1 mps 745 mmHg 94%
    02:00 +22°C° 0 mm 1 mps 745 mmHg 94%
    03:00 +22°C° 0 mm 1 mps 744 mmHg 93%
    04:00 +21°C° 0 mm 1 mps 744 mmHg 93%
    05:00 +23°C° 0 mm 1 mps 744 mmHg 88%
    06:00 +25°C° 0 mm 1 mps 744 mmHg 83%
    07:00 +26°C° 0 mm 1 mps 744 mmHg 78%
    08:00 +28°C° 0 mm 1 mps 744 mmHg 72%
    09:00 +29°C° 0 mm 1 mps 744 mmHg 67%
    10:00 +31°C° 0 mm 1 mps 744 mmHg 62%
    11:00 +32°C° 0 mm 1 mps 744 mmHg 57%
    12:00 +32°C° 0 mm 2 mps 744 mmHg 53%
    13:00 +34°C° 0 mm 2 mps 743 mmHg 48%
    14:00 +34°C° 0 mm 2 mps 743 mmHg 50%
    15:00 +34°C° 0 mm 3 mps 742 mmHg 51%
    16:00 +34°C° 0 mm 3 mps 742 mmHg 53%
    17:00 +31°C° 0 mm 3 mps 741 mmHg 58%
    18:00 +30°C° 0 mm 3 mps 741 mmHg 64%
    19:00 +28°C° 0 mm 3 mps 741 mmHg 70%
    20:00 +27°C° 0 mm 4 mps 741 mmHg 72%
    21:00 +26°C° 0 mm 4 mps 741 mmHg 75%
    22:00 +25°C° 0 mm 4 mps 740 mmHg 77%
    23:00 +25°C° 0 mm 4 mps 740 mmHg 77%

    Tomorrow, 27 June, Thursday

    Time Temperature Precipitation Wind Pressure Humidity
    00:00 +25°C° 0 mm 4 mps 740 mmHg 77%
    01:00 +25°C° 0 mm 5 mps 740 mmHg 77%
    02:00 +23°C° 0.3 mm 5 mps 739 mmHg 81%
    03:00 +23°C° 0.3 mm 5 mps 739 mmHg 85%
    04:00 +22°C° 0.3 mm 5 mps 739 mmHg 89%
    05:00 +22°C° 0.5 mm 5 mps 739 mmHg 89%
    06:00 +22°C° 0.5 mm 5 mps 739 mmHg 89%
    07:00 +22°C° 0.5 mm 5 mps 739 mmHg 89%
    08:00 +23°C° 0 mm 6 mps 739 mmHg 82%
    09:00 +23°C° 0 mm 7 mps 739 mmHg 75%
    10:00 +23°C° 0 mm 7 mps 739 mmHg 68%
    11:00 +24°C° 0 mm 7 mps 739 mmHg 61%
    12:00 +24°C° 0 mm 7 mps 739 mmHg 55%
    13:00 +24°C° 0 mm 7 mps 739 mmHg 48%
    14:00 +24°C° 0 mm 7 mps 739 mmHg 49%
    15:00 +23°C° 0 mm 7 mps 739 mmHg 50%
    16:00 +23°C° 0 mm 7 mps 739 mmHg 51%
    17:00 +22°C° 0 mm 6 mps 739 mmHg 57%
    18:00 +20°C° 0 mm 5 mps 738 mmHg 63%
    19:00 +19°C° 0 mm 4 mps 738 mmHg 69%
    20:00 +18°C° 0 mm 4 mps 739 mmHg 73%
    21:00 +17°C° 0 mm 4 mps 739 mmHg 76%
    22:00 +16°C° 0 mm 3 mps 739 mmHg 79%
    23:00 +16°C° 0 mm 3 mps 739 mmHg 84%

    Day after tomorrow, 28 June, Friday

    Time Temperature Precipitation Wind Pressure Humidity
    00:00 +14°C° 0 mm 3 mps 739 mmHg 88%
    01:00 +14°C° 0 mm 3 mps 739 mmHg 93%
    02:00 +14°C° 0 mm 3 mps 740 mmHg 93%
    03:00 +13°C° 0 mm 3 mps 740 mmHg 92%
    04:00 +13°C° 0 mm 3 mps 740 mmHg 92%
    05:00 +14°C° 0 mm 3 mps 740 mmHg 85%
    06:00 +16°C° 0 mm 3 mps 740 mmHg 78%
    07:00 +17°C° 0 mm 3 mps 741 mmHg 70%
    08:00 +18°C° 0 mm 3 mps 741 mmHg 64%
    09:00 +19°C° 0 mm 4 mps 741 mmHg 57%
    10:00 +20°C° 0 mm 4 mps 741 mmHg 51%
    11:00 +20°C° 0 mm 4 mps 740 mmHg 51%
    12:00 +21°C° 0 mm 4 mps 740 mmHg 51%
    13:00 +21°C° 0 mm 4 mps 740 mmHg 51%
    14:00 +21°C° 0 mm 4 mps 740 mmHg 54%
    15:00 +21°C° 0 mm 4 mps 740 mmHg 56%
    16:00 +22°C° 0 mm 4 mps 740 mmHg 58%
    17:00 +20°C° 0.2 mm 3 mps 740 mmHg 65%
    18:00 +19°C° 0.2 mm 3 mps 740 mmHg 72%
    19:00 +18°C° 0.2 mm 3 mps 740 mmHg 78%
    20:00 +17°C° 0 mm 2 mps 740 mmHg 79%
    21:00 +15°C° 0 mm 2 mps 740 mmHg 80%
    22:00 +14°C° 0 mm 2 mps 741 mmHg 80%
    23:00 +13°C° 0 mm 2 mps 741 mmHg 81%

    29 June, Saturday

    Time Temperature Precipitation Wind Pressure Humidity
    00:00 +13°C° 0 mm 2 mps 741 mmHg 82%
    01:00 +11°C° 0 mm 3 mps 741 mmHg 83%
    02:00 +10°C° 0 mm 3 mps 741 mmHg 83%
    03:00 +9°C° 0 mm 2 mps 742 mmHg 84%
    04:00 +9°C° 0 mm 2 mps 742 mmHg 84%
    05:00 +10°C° 0 mm 2 mps 742 mmHg 79%
    06:00 +12°C° 0 mm 3 mps 742 mmHg 73%
    07:00 +14°C° 0 mm 3 mps 742 mmHg 67%
    08:00 +17°C° 0 mm 3 mps 742 mmHg 62%
    09:00 +18°C° 0 mm 3 mps 742 mmHg 56%
    10:00 +20°C° 0 mm 4 mps 742 mmHg 51%
    11:00 +21°C° 0 mm 4 mps 742 mmHg 51%
    12:00 +21°C° 0 mm 4 mps 742 mmHg 51%
    13:00 +22°C° 0 mm 4 mps 742 mmHg 51%
    14:00 +22°C° 0 mm 4 mps 741 mmHg 52%
    15:00 +22°C° 0 mm 3 mps 741 mmHg 54%
    16:00 +22°C° 0 mm 3 mps 741 mmHg 55%
    17:00 +21°C° 0 mm 3 mps 741 mmHg 60%
    18:00 +21°C° 0 mm 2 mps 741 mmHg 65%
    19:00 +21°C° 0 mm 1 mps 741 mmHg 70%
    20:00 +19°C° 0 mm 1 mps 741 mmHg 72%
    21:00 +18°C° 0 mm 1 mps 741 mmHg 74%
    22:00 +16°C° 0 mm 1 mps 741 mmHg 75%
    23:00 +16°C° 0 mm 1 mps 741 mmHg 75%

    30 June, Sunday

    Time Temperature Precipitation Wind Pressure Humidity
    00:00 +15°C° 0 mm 1 mps 741 mmHg 76%
    01:00 +15°C° 0 mm 1 mps 741 mmHg 76%
    02:00 +15°C° 0 mm 1 mps 741 mmHg 76%
    03:00 +14°C° 0 mm 2 mps 741 mmHg 77%
    04:00 +14°C° 0 mm 2 mps 741 mmHg 77%
    05:00 +16°C° 0 mm 2 mps 741 mmHg 73%
    06:00 +18°C° 0 mm 2 mps 741 mmHg 69%
    07:00 +20°C° 0 mm 2 mps 741 mmHg 65%
    08:00 +23°C° 0 mm 2 mps 741 mmHg 59%
    09:00 +24°C° 0 mm 2 mps 741 mmHg 54%
    10:00 +26°C° 0 mm 2 mps 741 mmHg 49%
    11:00 +27°C° 0 mm 2 mps 741 mmHg 47%
    12:00 +28°C° 0 mm 2 mps 741 mmHg 46%
    13:00 +28°C° 0 mm 2 mps 740 mmHg 44%
    14:00 +29°C° 0 mm 2 mps 740 mmHg 45%
    15:00 +29°C° 0 mm 2 mps 740 mmHg 47%
    16:00 +29°C° 0 mm 2 mps 739 mmHg 48%
    17:00 +28°C° 0 mm 2 mps 739 mmHg 55%
    18:00 +26°C° 0 mm 2 mps 739 mmHg 61%
    19:00 +25°C° 0 mm 2 mps 739 mmHg 67%
    20:00 +23°C° 0 mm 2 mps 739 mmHg 69%
    21:00 +21°C° 0 mm 2 mps 739 mmHg 71%
    22:00 +20°C° 0 mm 3 mps 739 mmHg 73%
    23:00 +19°C° 0 mm 3 mps 739 mmHg 76%

    1 July, Monday

    Time Temperature Precipitation Wind Pressure Humidity
    00:00 +18°C° 0 mm 3 mps 738 mmHg 79%
    01:00 +18°C° 0 mm 3 mps 738 mmHg 82%
    02:00 +17°C° 0 mm 3 mps 738 mmHg 82%
    03:00 +17°C° 0 mm 3 mps 738 mmHg 82%
    04:00 +16°C° 0 mm 3 mps 738 mmHg 82%
    05:00 +18°C° 0 mm 3 mps 738 mmHg 77%
    06:00 +20°C° 0 mm 3 mps 738 mmHg 73%
    07:00 +22°C° 0 mm 3 mps 738 mmHg 68%
    08:00 +24°C° 0 mm 3 mps 738 mmHg 64%
    09:00 +26°C° 0 mm 4 mps 738 mmHg 61%
    10:00 +28°C° 0 mm 4 mps 738 mmHg 57%
    11:00 +29°C° 0 mm 4 mps 738 mmHg 57%
    12:00 +29°C° 0 mm 4 mps 737 mmHg 57%
    13:00 +30°C° 0 mm 4 mps 737 mmHg 57%
    14:00 +30°C° 0 mm 4 mps 737 mmHg 56%
    15:00 +30°C° 0 mm 4 mps 736 mmHg 56%
    16:00 +32°C° 0 mm 5 mps 736 mmHg 55%
    17:00 +29°C° 0.4 mm 5 mps 736 mmHg 62%
    18:00 +27°C° 0.4 mm 5 mps 736 mmHg 69%
    19:00 +26°C° 0.4 mm 5 mps 736 mmHg 75%
    20:00 +25°C° 0.1 mm 4 mps 736 mmHg 78%
    21:00 +22°C° 0.1 mm 4 mps 736 mmHg 80%
    22:00 +21°C° 0.1 mm 3 mps 736 mmHg 82%
    23:00 +21°C° 2.9 mm 4 mps 736 mmHg 87%
    Show more